Location: Kellogg
(38.0159°N, 90.0546°W)
Time: 15:23:31
(UTC+00:00)

Courier 1B - Pass Details

Date: 11 September 2024
Orbit: 962 x 1208 km, 28.3° (Epoch: 07 October)

Event Time Altitude Azimuth Distance (km) Brightness Sun altitude
Rises 02:39:12 0° 264° (W) 4,108 11.5 -27.6°
Reaches altitude 10° 02:42:43 10° 251° (WSW) 3,137 10.6 -28.2°
Maximum altitude 02:48:34 23° 203° (SSW) 2,269 9.3 -29.2°
Enters shadow 02:49:02 23° 197° (SSW) 2,272 9.2 -29.3°
Drops below altitude 10° 02:54:18 10° 153° (SSE) 3,058 - -30.1°
Sets 02:57:41 0° 140° (SE) 3,981 - -30.7°
